Hourly Data Report for June 25, 2018

TORONTO CITY
ONTARIO
Current Station Operator: ECCC - MSC

43°40'00.000" N
79°24'00.000" W
112.50 m
6158355
71508
XTO

Download Data

Hourly Data (June 2018)
Hourly Data Report for June 25, 2018
TIME
LST
Temp Definition
°C
Dew Point Definition
°C
Rel Hum Definition
%
Precip. Amount Definition
mm

Wind Dir Definition
10's deg

Wind Spd Definition
km/h
Visibility Definition
km
Stn Press Definition
kPa
Hmdx Definition


Wind Chill Definition


Weather Definition


00:00 16.8 12.4 75 0.0 LegendMM LegendMM   100.44     LegendNANA
01:00 16.8 11.9 73 0.0 LegendMM LegendMM   100.44     LegendNANA
02:00 15.7 11.7 77 0.0 LegendMM LegendMM   100.46     LegendNANA
03:00 14.7 11.6 82 0.0 LegendMM LegendMM   100.45     LegendNANA
04:00 14.9 11.1 78 0.0 LegendMM LegendMM   100.51     LegendNANA
05:00 14.9 9.4 70 0.0 LegendMM LegendMM   100.65     LegendNANA
06:00 15.1 7.8 62 0.0 LegendMM LegendMM   100.75     LegendNANA
07:00 16.4 6.8 53 0.0 LegendMM LegendMM   100.81     LegendNANA
08:00 18.1 6.7 47 0.0 LegendMM LegendMM   100.89     LegendNANA
09:00 19.6 6.1 41 0.0 LegendMM LegendMM   100.92     LegendNANA
10:00 20.4 3.2 32 0.0 LegendMM LegendMM   100.94     LegendNANA
11:00 20.8 4.0 33 0.0 LegendMM LegendMM   100.97     LegendNANA
12:00 21.1 2.1 29 0.0 LegendMM LegendMM   100.97     LegendNANA
13:00 22.3 1.9 26 0.0 LegendMM LegendMM   100.97     LegendNANA
14:00 21.9 8.7 43 0.0 LegendMM LegendMM   100.97     LegendNANA
15:00 21.0 6.4 39 0.0 LegendMM LegendMM   100.93     LegendNANA
16:00 21.0 6.9 40 0.0 LegendMM LegendMM   100.91     LegendNANA
17:00 20.3 4.0 34 0.0 LegendMM LegendMM   100.87     LegendNANA
18:00 20.2 5.9 39 0.0 LegendMM LegendMM   100.88     LegendNANA
19:00 19.8 3.6 34 0.0 LegendMM LegendMM   100.90     LegendNANA
20:00 18.3 4.6 40 0.0 LegendMM LegendMM   100.90     LegendNANA
21:00 16.9 5.4 46 0.0 LegendMM LegendMM   100.97     LegendNANA
22:00 16.4 5.2 47 0.0 LegendMM LegendMM   100.93     LegendNANA
23:00 16.4 6.2 51 0.0 LegendMM LegendMM   100.98     LegendNANA

Notes on Data Quality.

Legend

  • E = Estimated
  • M = Missing
  • NA = Not Available*
  • [empty] = Indicates an unobserved value
Date modified: